This demonstration page uses our WeatherBlox Daily Observations layout. Learn more.

Left ArrowRight Arrow

39.51506, -84.39828

Hourly Observations for September 26, 2021

Temp ( °F °C ) Dew Point ( °F °C ) Humidity (%) Winds ( mph kmh ) Pressure ( in mb ) Visibility ( mi km ) Precip ( " mm )
12:15 am 00:15 Clear 48 9 N/A N/A N N/A 30.10 1019 10 16 N/A
12:35 am 00:35 Clear 46 8 N/A N/A N N/A 30.10 1019 10 16 N/A
12:55 am 00:55 Clear 46 8 N/A N/A N N/A 30.10 1019 10 16 N/A
1:15 am 01:15 Clear with Mist and Fog 46 8 N/A N/A N N/A 30.10 1019 5 8 N/A
1:35 am 01:35 Clear 46 8 N/A N/A N N/A 30.09 1019 10 16 N/A
1:55 am 01:55 Clear 46 8 N/A N/A N N/A 30.09 1019 10 16 N/A
2:15 am 02:15 Hazy 46 8 N/A N/A N N/A 30.09 1019 5 8 N/A
2:35 am 02:35 Clear 45 7 N/A N/A N N/A 30.11 1020 10 16 N/A
2:55 am 02:55 Mostly Cloudy with Mist and Fog 46 8 N/A N/A N N/A 30.10 1019 2 3 N/A
3:15 am 03:15 Clear with Mist and Fog 46 8 N/A N/A N N/A 30.09 1019 3 5 N/A
3:35 am 03:35 Mostly Cloudy with Mist and Fog 46 8 N/A N/A N N/A 30.09 1019 1 1 N/A
3:55 am 03:55 Mostly Cloudy with Fog 45 7 N/A N/A N N/A 30.10 1019 1 1 N/A
4:15 am 04:15 Hazy 46 8 N/A N/A N N/A 30.10 1019 3 5 N/A
4:35 am 04:35 Mostly Cloudy with Mist and Fog 45 7 N/A N/A N N/A 30.11 1020 2 2 N/A
4:55 am 04:55 Mostly Cloudy with Fog 45 7 N/A N/A N N/A 30.11 1020 1 1 N/A
5:15 am 05:15 Cloudy with Fog 43 6 N/A N/A N N/A 30.11 1020 0 0 N/A
5:35 am 05:35 Mostly Cloudy with Mist and Fog 45 7 N/A N/A WSW 3 6 30.11 1020 1 2 N/A
5:55 am 05:55 Mostly Cloudy with Mist and Fog 45 7 N/A N/A SW 5 7 30.12 1020 1 1 N/A
6:15 am 06:15 Hazy 45 7 N/A N/A SW 3 6 30.12 1020 5 8 N/A
6:35 am 06:35 Hazy 46 8 N/A N/A WSW 3 6 30.11 1020 7 11 N/A
6:55 am 06:55 Hazy 43 6 N/A N/A WSW 3 6 30.13 1020 7 11 N/A
7:15 am 07:15 Clear 45 7 N/A N/A SW 5 7 30.13 1020 7 11 N/A
7:35 am 07:35 Sunny with Mist and Fog 45 7 N/A N/A SW 5 7 30.14 1021 4 6 N/A
7:55 am 07:55 Mostly Cloudy with Mist and Fog 45 7 N/A N/A N N/A 30.14 1021 1 2 N/A
8:15 am 08:15 Hazy 45 7 N/A N/A N N/A 30.14 1021 4 6 N/A
8:35 am 08:35 Sunny 48 9 N/A N/A N N/A 30.14 1021 10 16 N/A
8:55 am 08:55 Sunny 50 10 N/A N/A SW 3 6 30.13 1020 10 16 N/A
9:15 am 09:15 Sunny 52 11 N/A N/A SSW 6 9 30.14 1021 10 16 N/A
9:35 am 09:35 Sunny 53 11.9 52 11.3 96 96 SSW 7 11 30.13 1020 10 16 N/A
9:55 am 09:55 Sunny 55 12.9 52 11.1 89 89 SSW 7 11 30.14 1021 10 16 N/A
10:15 am 10:15 Sunny 58 14.6 51 10.8 78 78 SSW 8 13 30.14 1021 10 16 N/A
10:35 am 10:35 Sunny 60 15.4 52 11.1 76 76 S 6 9 30.14 1021 10 16 N/A
10:55 am 10:55 Sunny 62 16.6 51 10.4 67 67 SW 7 11 30.13 1020 10 16 N/A
11:15 am 11:15 Sunny 64 17.8 49 9.7 59 59 SW 8 13 30.13 1020 10 16 N/A
11:35 am 11:35 Sunny 66 19 48 9.1 53 53 SW 10 17 30.13 1020 10 16 N/A
11:55 am 11:55 Sunny 68 20.2 50 10 52 52 SSW 10 17 30.12 1020 10 16 N/A
12:15 pm 12:15 Sunny 69 20.7 48 9.1 48 48 SSW 10 17 30.12 1020 10 16 N/A
12:35 pm 12:35 Sunny 70 21.3 47 8.5 44 44 SSW 10 17 30.11 1020 10 16 N/A
12:55 pm 12:55 Sunny 72 22 48 9.1 44 44 SSW 10 17 30.10 1019 10 16 N/A
1:15 pm 13:15 Sunny 72 22.2 47 8.6 42 42 WSW 10 17 30.09 1019 10 16 N/A
1:35 pm 13:35 Sunny 73 22.7 48 8.9 41 41 SSW 12 19 30.09 1019 10 16 N/A
1:55 pm 13:55 Sunny 73 22.8 47 8.6 40 40 SW 12 19 30.08 1019 10 16 N/A
2:15 pm 14:15 Sunny 74 23.3 48 9.1 41 41 SW 12 19 30.07 1018 10 16 N/A
2:35 pm 14:35 Sunny 74 23.6 50 9.8 42 42 SW 12 19 30.07 1018 10 16 N/A
2:55 pm 14:55 Sunny 75 24 50 9.9 41 41 SW 10 17 30.06 1018 10 16 N/A
3:15 pm 15:15 Sunny 75 24.1 49 9.7 40 40 SSW 13 20 30.05 1017 10 16 N/A
3:35 pm 15:35 Sunny 75 24 48 8.8 38 38 SSW 12 19 30.04 1017 10 16 N/A
3:55 pm 15:55 Sunny 76 24.4 47 8.6 37 37 SSW 14 22 30.03 1017 10 16 N/A
4:15 pm 16:15 Sunny 76 24.6 48 8.7 36 36 WSW 8 13 30.02 1017 10 16 N/A
4:35 pm 16:35 Sunny 76 24.3 47 8.2 36 36 SW 14 22 30.02 1017 10 16 N/A
4:55 pm 16:55 Sunny 75 24 48 9 39 39 SW 13 20 30.03 1017 10 16 N/A
5:15 pm 17:15 Sunny 75 23.7 48 8.7 38 38 SW 15 24 30.02 1016 10 16 N/A
5:35 pm 17:35 Sunny 74 23.4 48 8.9 40 40 SW 13 20 30.03 1017 10 16 N/A
5:55 pm 17:55 Sunny 73 22.9 49 9.2 42 42 SW 12 19 30.03 1017 10 16 N/A
6:15 pm 18:15 Sunny 73 22.5 49 9.3 43 43 SW 13 20 30.03 1017 10 16 N/A
6:35 pm 18:35 Sunny 72 22.2 49 9.6 45 45 SW 13 20 30.02 1017 10 16 N/A
6:55 pm 18:55 Sunny 70 21.2 50 9.9 49 49 SW 10 17 30.02 1017 10 16 N/A
7:15 pm 19:15 Sunny 69 20.4 50 10.2 52 52 SW 7 11 30.02 1017 10 16 N/A
7:35 pm 19:35 Clear 66 18.9 51 10.4 58 58 SW 7 11 30.03 1017 10 16 N/A
7:55 pm 19:55 Clear 64 17.9 52 11.1 65 65 WSW 6 9 30.03 1017 10 16 N/A
8:15 pm 20:15 Clear 60 15.7 55 12.8 83 83 WSW 5 7 30.03 1017 10 16 N/A
8:35 pm 20:35 Clear 59 14.9 56 13.1 89 89 WSW 6 9 30.04 1017 10 16 N/A
8:55 pm 20:55 Clear 57 14 56 13.2 95 95 WSW 5 7 30.04 1017 10 16 N/A
9:15 pm 21:15 Clear 57 13.9 55 13 94 94 WSW 6 9 30.05 1018 10 16 N/A
9:35 pm 21:35 Clear 56 13.5 55 12.6 94 94 WSW 5 7 30.05 1018 10 16 N/A
9:55 pm 21:55 Clear 56 13.4 55 12.6 95 95 WSW 3 6 30.05 1018 10 16 N/A
10:15 pm 22:15 Clear 55 12.5 55 12.5 100 100 WSW 5 7 30.04 1017 10 16 N/A
10:35 pm 22:35 Clear 54 12 54 12 100 100 WSW 6 9 30.04 1017 10 16 N/A
10:55 pm 22:55 Clear 54 12.2 53 11.9 98 98 WSW 5 7 30.04 1017 10 16 N/A
11:15 pm 23:15 Clear 54 12 54 12 100 100 SW 5 7 30.04 1017 10 16 N/A
11:35 pm 23:35 Clear 54 12 54 12 100 100 SW 5 7 30.04 1017 10 16 N/A
11:55 pm 23:55 Clear 54 12 N/A N/A SW 5 7 30.04 1017 10 16 N/A

Powered by AerisWeather